Auburn, Indiana
Current Conditions -  °F | °C
As of 7:55 AM on Thursday 30 Oct 2014 (Local Time) from KGWB Reporting Station
Overcast Overcast  
Wind Chill: 43°   Ceiling: 3400
Heat Index: 43°   Visibility: 10mi
Dew Point: 36°   Wind: 3mph
Humidity: 76%   Direction: 210°SSW
Pressure: 30.13"   Gusts: NA
Location:  41.37°N, 85.05°W
Report Text: KGWB 301155Z AUTO 21003KT 10SM OVC034 06/02 A3013 RMK AO2
Loading
Personal Weather Stations






























Interactive Weather Map
Tropical Storm Tracking
New forecast layout! Learn more

10-Day Weather Forecast

Advertisements
Track Severe Weather on mobile